1st Responders/1st Detectors/Storm Spotters Weather Summary for Harrison County, KY

Forecast Maps


Reg. NEXRAD Animation


National Fire Danger: Day 1 & 2 Map

Current NWS Watch/Warnings

SPC Convective Day 1 Outlook


Day 2 Outlook

(Click images to enlarge|Page will refresh every 5 minutes)
UK Ag. Weather Center Desktop Severe Weather Service[HERE]
Harrison County, KY Hazardous Weather Outlook Webcast
(9 AM to 9 PM Mon-Fri)
[Fast]
[Dial-up]


UKAWC 1st Detectors/1st Responders Precision Weather Forecast For HARRISON County, Kentucky
(based on the NWS County Digital Forecast)

ISSUED AT 01:00 UTC ON SUNDAY JAN 20 2019
DAY SATURDAY SUNDAY
EDT 3HR 10P 11P MIDN 1A 2A 3A 4A 5A 6A 7A 8A 9A 10A 11A NOON 1P 2P 3P 4P 5P 6P 7P
MAX/MIN -- -- -- -- -- -- -- -- -- -- 14° -- -- -- -- -- -- -- -- -- -- 18°
TEMP 36° 34° 31° 29° 25° 25° 22° 22° 20° 18° 18° 14° 13° 13° 13° 16° 18° 18° 18° 18° 16° 14°
SKY COVER 100% 100% 100% 100% 100% 100% 99% 99% 98% 96% 95% 83% 72% 60% 52% 43% 34% 31% 28% 25% 29% 34%
Clouds
DEW PT 36° 32° 29° 27° 22° 20° 18° 16° 14° 13° 13° 11° 11°
RH 96% 95% 92% 91% 88% 84% 84% 80% 80% 80% 79% 87% 87% 84% 83% 73% 67% 64% 64% 63% 67% 69%
POP 12HR -- -- -- -- -- -- -- -- -- -- 96% -- -- -- -- -- -- -- -- -- -- --
RAIN/SNOW (liq.equ) -- -- -- -- 0.33in -- -- -- -- -- 0.15in -- -- -- -- -- 0.00in -- -- -- -- --
SNOWFALL -- -- -- -- 0in -- -- -- -- -- 1in -- -- -- -- -- 0in -- -- -- -- --
WIND SPEED(MPH) 17 17 18 22 21 21 18 17 17 16 16 15 14 14 13 13 13 13 13 13 10 9
WIND Gust(MPH) 24 33 32 38 39 38 35 32 31 30 23 22 18 17 17 16 16 17 17 17 15 14
WIND DIR N N N N N N N N N N N N N N N N N N NW NW NW NW
DEW -- -- -- -- -- -- -- -- -- -- -- -- -- -- -- -- -- -- -- -- -- Freeze
HeatIndex 27 23 20 15 11 10 8 7 4 4 2 0 0 0 0 2 4 6 6 4 4 2
Snow -- -- Definite Definite Definite Definite Likely Chance Chance -- -- -- -- -- -- -- -- -- -- -- -- --
Rain Definite Definite -- -- -- -- -- -- -- -- -- -- -- -- -- -- -- -- -- -- -- --
Ice Pellets -- Slight Chance Likely Slight Chance -- -- -- -- -- -- -- -- -- -- -- -- -- -- -- -- -- --
WIND CHILL 26° 24° 19° 16° 11° 11° -1° -1°
SPRAY COND
DRY COND
LIVESTOCK COLDSTRESS



DAY MONDAY TUESDAY WEDNESDAY THURSDAY FRIDAY SATURDAY
EDT 6HR 8P 9P 10P 11P MIDN 1A 2A 3A 4A 5A 6A 7A 8A 9A 11A 2P 5P 8P 11P 2A 5A 8A 11A 2P 5P 8P 2A 8A 2P 8P 2A 8A 2P 8P 2A 8A 2P 8P 2A 8A 2P 8P
MAX/MIN -- -- -- -- -- -- -- -- -- -- -- -- -- -- -- 22° -- -- -- -- 14° -- -- 45° -- -- 40° 47° -- -- 27° 32° -- -- 22° 31° -- -- 16° 29° --
TEMP 13° 13° 13° 13° 11° 11° 11° 11° 11° 13° 20° 22° 14° 16° 16° 18° 18° 27° 41° 45° 40° 43° 47° 43° 38° 29° 27° 32° 31° 27° 22° 31° 23° 18° 16° 27° 25°
SKY COVER 38% 52% 53% 54% 52% 50% 48% 45% 41% 38% 34% 31% 27% 25% 21% 22% 37% 36% 29% 38% 27% 40% 28% 50% 70% 89% 98% 98% 97% 96% 91% 80% 63% 58% 67% 65% 57% 69% 66% 64% 67% 73%
Clouds
DEW PT 14° 22° 27° 27° 36° 40° 38° 32° 27° 25° 25° 23° 25° 20° 20° 16° 11° 11° 16° 18°
RH 73% 66% 69% 73% 76% 76% 79% 79% 79% 83% 87% 91% 83% 91% 72% 48% 49% 67% 67% 64% 67% 64% 57% 46% 50% 59% 76% 76% 85% 81% 88% 92% 71% 74% 88% 91% 63% 71% 73% 80% 63% 74%
POP 12HR 3% -- -- -- -- -- -- -- -- -- -- -- 0% -- -- -- -- 0% -- -- -- 2% -- -- -- 4% -- 84% -- 84% -- 50% -- 9% -- 13% -- 11% -- 16% -- 34%
RAIN/SNOW (liq.equ) 0.00in -- -- -- -- -- 0.00in -- -- -- -- -- 0.00in -- -- 0.00in -- 0.00in -- 0.00in -- 0.00in -- 0.00in -- 0.00in -- -- -- -- -- -- -- -- -- -- -- -- -- -- -- --
SNOWFALL 0in -- -- -- -- -- 0in -- -- -- -- -- 0in -- -- 0in -- 0in -- 0in -- 0in -- 0in -- 0in -- -- -- -- -- -- -- -- -- -- -- -- -- -- -- --
WIND SPEED(MPH) 7 7 7 6 6 5 5 5 5 5 5 5 5 5 5 5 5 6 7 7 7 7 8 10 13 14 15 13 9 7 7 7 7 6 7 7 8 7 7 8 8 8
WIND DIR NW NW NW NW NW NW NW NW NW NW NW NW N N N NE E E E E SE SE S S S S S SW W W NW NW W W W W W W W SW SW W
HeatIndex 2 3 2 3 2 4 2 2 2 1 0 -2 -2 0 6 13 16 6 5 6 9 9 19 35 38 33 36 47 37 32 23 19 26 25 20 13 22 14 9 5 19 16
Snow -- -- -- -- -- -- -- -- -- -- -- -- -- -- -- -- -- -- -- -- -- -- -- -- -- -- -- -- -- -- Slight Chance -- -- -- -- -- -- -- Slight Chance Chance Chance Chance
Rain -- -- -- -- -- -- -- -- -- -- -- -- -- -- -- -- -- -- -- -- -- -- -- -- -- Chance Definite Definite Likely Chance -- -- -- -- -- -- -- -- -- -- -- --
Ice Pellets -- -- -- -- -- -- -- -- -- -- -- -- -- -- -- -- -- -- -- -- -- -- -- -- -- -- -- -- -- -- -- -- -- -- -- -- -- -- -- -- -- --
WIND CHILL -3° -3° 14° 16° 19° 35° 39° 32° 36° -- 38° 33° 22° 20° 26° 25° 20° 14° 24° 15° 19° 17°
SPRAY COND
DRY COND
LIVESTOCK COLDSTRESS

Click on individual weather variable above in left-hand column (ie., TEMP, RH, QPF 12HR) to view state forecast maps






NWS 48 Hr. Forecast Maps,

Regional Hourly Observations For HARRISON County, Kentucky
Issued at 800 PM EST SAT JAN 19 2019
NORTHEAST KENTUCKY
  
CITY           SKY/WX    TMP DP  RH WIND       PRES   REMARKS
LEXINGTON      LGT RAIN  46  43  89 N13       29.41S                  
COVINGTON      FRZ RAIN  32  32 100 N23G33    29.55R FOG     WCI  19  
FRANKFORT      LGT RAIN  38  36  92 N14G26    29.44R WCI  30          


Current NOWCAST not available:
Nowcasts are not issued routinely during fair weather. Only when
precipitation or other significant weather is occuring in this county will these
forecasts be issued. Currently, there is no short term forecast in effect.


Fire Weather Forecast For HARRISON County, KY
Provided by the National Weather Service:

Issued at: Sat Jan 19 20:05:01 EST 2019


                      Today        Tonight      Sat          

CLOUD COVER           MCldy        Cloudy       Cloudy       
PRECIP TYPE           None         Showers      Showers      
CHANCE PRECIP (%)     0            60           100          
TEMP (24H TREND)      41 (-2)      35 (-1)      52           
RH % (24H TREND)      76 (-11)     94 (-6)      73           
20FTWND-VAL/AM(MPH)   Lgt/Var                   E  7         
20FTWND-RDG/PM(MPH)   Lgt/Var      E  5         NE  9 G19    
PRECIP AMOUNT         0.00         0.10         1.20         
MIXING HGT(FT-AGL/MSL)2612                      1022         
TRANSPORT WND (MPH)   W  3                      N 16         
VENT RATE (KT-FT)     13060                     19361        
DISPERSION            Poor                      Poor         
DSI                   STBL         STBL         STBL         
LAL                   1            1            1            
HAINES INDEX          2            2            2            
ADI EARLY             13 GEN POOR  11 POOR      20 GEN POOR  
ADI LATE              10 POOR      18 GEN POOR  15 GEN POOR  
MAX LVORI EARLY       6            5            5            
MAX LVORI LATE        5            5            5            

REMARKS...ADI IS ATMOSPHERIC DISPERSION INDEX BY LAVDAS.        
LVORI IS LOW VISIBILITY OCCURRENCE RISK INDEX.

.SUNDAY...Snow showers, rain showers and chance of freezing rain.
Lows around 17. Highs in the lower 20s. North winds around
15 mph. 
.MONDAY...Partly cloudy. Lows around 7. Highs in the mid 20s.
North winds around 5 mph. 
.TUESDAY...Mostly cloudy. A 50 percent chance of rain showers.
Not as cool. Lows in the lower 20s. Highs in the upper 40s. South
winds 5 to 15 mph. 
.WEDNESDAY...Snow showers with rain showers likely. Lows in the
lower 30s. Highs in the upper 30s. West winds 5 to 15 mph. 
.THURSDAY...Mostly cloudy with a 30 percent chance of snow
showers. Lows in the lower 20s. Highs in the mid 30s. West winds
5 to 10 mph. 

SPC's Fire Weather Web Tool (Excellent!), SPC's Fire Weather Outlooks, NWS Fire Weather WEB, Fire Danger Class Map,
Keetch-Byram Drought Index, ROMAN Web, Haines Index ,
WFAS's 10-hr Dead Fuel Moist., WFAS's 100-hr Dead Fuel Moist., Probablity of Ignition, Visual blackness Map, Palmer Drought Index, HPC's Rainfall Forecast Maps


Hazardous Weather Outlook For HARRISON County, Kentucky
314 PM EST Sat Jan 19 2019 /214 PM CST Sat Jan 19 2019/

 DAY ONE  Tonight

Cold air will filter into the region with temperatures falling 
into the 20s overnight. A band of snow is expected to move through
the region and will bring significant snowfall to southern 
Indiana and parts of Kentucky. The area at most risk for 
significant snowfall will be in areas west of I-65 and north of 
I-64. Winter Storm Warnings and Winter Weather Advisories have 
been issued for the outlook area. Please see the Winter Weather 
Message product for more details.

Very hazardous driving conditions are expected late this evening
and into the overnight period.

 DAYS TWO THROUGH SEVEN  Sunday through Friday

The next weather system to affect the region looks to arrive 
around Wednesday bringing a round of rain and snow to the area.

 SPOTTER INFORMATION STATEMENT  

Spotters are asked to report precipitation type and snowfall 
amounts tonight and Sunday morning.

Latest HARRISON County, Kentucky Watches, Warnings and Advisories.
Additional Drought Info.: UKAWC Drought Page, Kentucky Drought Watch


7-Day Forecast For HARRISON County, KY


WINTER WEATHER ADVISORY IN EFFECT UNTIL 7 AM EST SUNDAY

TONIGHT
Breezy, colder. Rain possibly mixed with sleet in the evening, then snow possibly mixed with sleet and freezing rain after midnight. Snow and sleet accumulation of 1 to 2 inches. Lows around 16. North winds 15 to 25 mph with gusts to around 40 mph. Chance of precipitation near 100 percent.

SUNDAY
Colder. Partly cloudy. Highs around 19. Northwest winds 10 to 15 mph with gusts to around 30 mph. Wind chill readings 3 below to 7 above zero.

SUNDAY NIGHT
Partly cloudy. Lows around 6. Northwest winds 5 to 10 mph. Wind chill readings 3 below to 7 above zero.

MARTIN LUTHER KING JR DAY
Partly cloudy. Highs in the lower 20s. Northeast winds around 5 mph. Wind chill readings 6 below to 4 above zero.

MONDAY NIGHT
Partly cloudy. Lows around 15. East winds 5 to 10 mph.

TUESDAY
Not as cool. Partly cloudy. Highs in the mid 40s.

TUESDAY NIGHT
Not as cool. Rain. Lows around 40. Chance of rain 80 percent.

WEDNESDAY
Rain. Highs in the upper 40s. Chance of rain 80 percent.

WEDNESDAY NIGHT
Rain likely possibly mixed with snow. Lows in the upper 20s. Chance of precipitation 70 percent.

THURSDAY
Partly cloudy. Highs in the lower 30s.

THURSDAY NIGHT
Partly cloudy. Lows in the lower 20s.

FRIDAY
Partly cloudy. Highs in the lower 30s.

FRIDAY NIGHT
Partly cloudy with a 20 percent chance of light snow. Lows around 16.

SATURDAY
Partly cloudy with a 30 percent chance of light snow. Highs in the upper 20s.

Ag Weather Center, Department of Biosystems & Agricultural Engineering, University of Kentucky